ONEWEB-0570 (55149 NORAD) Tracking and Keplerian Element Data

This shows tracking and keplerian element data for the satellite.

Feedback or suggestion? Click here.




ElementValue
Catalog55149
NameONEWEB-0570
Epoch Orbit1119
Epoch Day84.88001112
Epoch Year2023
RAAN253.6914
Inclination86.6209
Eccentricity0.0011164
Argument of Perigee333.6035
Mean Anonmoly26.4609
Mean Motion14.65915326
Decay Rate1.643E-05
L11 55149U 23004K 23084.88001112 .00001643 00000+0 29631-3 0 9998
L22 55149 86.6209 253.6914 0011164 333.6035 26.4609 14.65915326 11194



Live tracking and technical data element details for ONEWEB-0570 (NORAD 55149). ONEWEB-0570 can be tracked NOW for your location showing map with azimuth and elevation plus other details from your city location.







IsCatalogInMostPopularTable: catalog: 55149, numindb: 11
Update: records affected: 1



GetName: 55149 ONEWEB-0570

Hit Count: updated at: Mon, 27 Mar 2023 06:55:35 GMT